This is the latest recevied weather packets stored in our database for station/object WW3TRG. If no packets are shown the sender has not sent any weather packets the latest 10 day(s).
| Time | Temp. | Humidity | Pressure | Rain* | Wind** | Luminosity | Snow |
|---|---|---|---|---|---|---|---|
| 1777910553 | 20° C | 40% | 1011.4 hPa | 0 mm | - | 623 W/m² | - |
| 1777910251 | 19.44° C | 39% | 1011.6 hPa | 0 mm | - | 659 W/m² | - |
| 1777909948 | 19.44° C | 38% | 1011.8 hPa | 0 mm | - | 656 W/m² | - |
| 1777909644 | 19.44° C | 37% | 1011.5 hPa | 0 mm | - | 577 W/m² | - |
| 1777909342 | 18.89° C | 40% | 1011.7 hPa | 0 mm | - | 658 W/m² | - |
| 1777909040 | 18.89° C | 39% | 1011.8 hPa | 0 mm | - | 586 W/m² | - |
| 1777908737 | 18.89° C | 41% | 1011.8 hPa | 0 mm | - | 609 W/m² | - |
| 1777908434 | 18.89° C | 42% | 1012 hPa | 0 mm | - | 679 W/m² | - |
| 1777908130 | 18.33° C | 39% | 1011.9 hPa | 0 mm | - | 727 W/m² | - |
| 1777907827 | 18.33° C | 42% | 1012 hPa | 0 mm | - | 626 W/m² | - |
| 1777907523 | 17.78° C | 40% | 1012 hPa | 0 mm | - | 612 W/m² | - |
| 1777907219 | 17.78° C | 41% | 1011.9 hPa | 0 mm | - | 684 W/m² | - |
| 1777906916 | 17.78° C | 45% | 1012.2 hPa | 0 mm | - | 684 W/m² | - |
| 1777906614 | 18.33° C | 43% | 1012 hPa | 0 mm | - | 793 W/m² | - |
| 1777906309 | 17.78° C | 42% | 1012.2 hPa | 0 mm | - | 690 W/m² | - |
| 1777906006 | 17.22° C | 42% | 1012.2 hPa | 0 mm | - | 699 W/m² | - |
| 1777905702 | 16.67° C | 42% | 1012.1 hPa | 0 mm | - | 317 W/m² | - |
| 1777905399 | 17.22° C | 43% | 1012.1 hPa | 0 mm | - | 592 W/m² | - |
| 1777905097 | 16.67° C | 43% | 1012.3 hPa | 0 mm | - | 357 W/m² | - |
| 1777904794 | 16.67° C | 43% | 1012.3 hPa | 0 mm | - | 700 W/m² | - |
| 1777904491 | 16.67° C | 43% | 1012.2 hPa | 0 mm | - | 685 W/m² | - |
| 1777904187 | 16.67° C | 47% | 1012.3 hPa | 0 mm | - | 618 W/m² | - |
| 1777903885 | 16.11° C | 43% | 1012.3 hPa | 0 mm | - | 593 W/m² | - |
| 1777903582 | 15.56° C | 45% | 1012.4 hPa | 0 mm | - | 582 W/m² | - |
| 1777903277 | 15.56° C | 45% | 1012.4 hPa | 0 mm | - | 554 W/m² | - |
* Rain latest hour (hover to see other rain measurements)
** Current wind speed in m/s (hover to see current wind gust speed)